Weather History for Abbotsford, BC

Change the Weather History Date:

Saturday, July 27, 2013

  Actual Average Record
Temperature  
Mean Temperature 64 °F -  
Max Temperature 76 °F 74 °F 93 °F (1998)
Min Temperature 53 °F 52 °F 51 °F (1997)
Growing Degree Days 14 (Base 50)    
Moisture  
Dew Point 52 °F    
Average Humidity 66    
Maximum Humidity 94    
Minimum Humidity 29    
Precipitation  
Precipitation 0.00 in 0.07 in - ()
Sea Level Pressure  
Sea Level Pressure 30.09 in    
Wind  
Wind Speed 6 mph ()    
Max Wind Speed 16 mph    
Max Gust Speed 24 mph    
Visibility 15.0 miles    
Events      
Averages and records for this station are not official NWS values.
T = Trace of Precipitation, MM = Missing Value Source: Averaged Metar Reports

Daily Weather History Graph

Daily Weather History Graph

Search for Another Location

Airport:

Trip Planner

Search our weather history database for the weather conditions in past years. The results will help you decide how hot, cold, wet, or windy it might be!

Date:

Astronomy

Jul. 27, 2013 Rise Set
Actual Time 5:36 AM PDT 8:55 PM PDT
Civil Twilight 4:57 AM PDT 9:33 PM PDT
Nautical Twilight 4:06 AM PDT 10:23 PM PDT
Astronomical Twilight 3:00 AM PDT 11:29 PM PDT
Moon 11:06 PM PDT 11:58 AM PDT
Length of Visible Light 16h 35m
Length of Day
15h 18m
Waning Gibbous, 70% of the Moon is Illuminated
Jul 27
Waning Gibbous
Jul 29
Last Quarter
Aug 6
New
Aug 14
First Quarter
Aug 20
Full

Hourly Weather History & Observations

Time (PDT) Temp. Dew Point Humidity Pressure Visibility Wind Dir Wind Speed Gust Speed Precip Events Conditions
12:00 AM 57.2 °F 51.8 °F 82% 30.12 in 15.0 mi South 2.3 mph - N/A   Clear
1:00 AM 55.4 °F 51.8 °F 88% 30.12 in 15.0 mi Calm Calm - N/A   Clear
2:00 AM 57.2 °F 51.8 °F 82% 30.12 in 15.0 mi South 9.2 mph - N/A   Clear
3:00 AM 57.2 °F 51.8 °F 82% 30.13 in 15.0 mi South 6.9 mph - N/A   Clear
4:00 AM 55.4 °F 51.8 °F 88% 30.13 in 15.0 mi South 5.8 mph - N/A   Partly Cloudy
5:00 AM 55 °F 51 °F 83% 30.14 in 28 mi SSW 3.5 mph - -   Scattered Clouds
5:00 AM 55.4 °F 51.8 °F 88% 30.14 in 30.0 mi SSW 2.3 mph - N/A   Partly Cloudy
6:00 AM 53.6 °F 51.8 °F 94% 30.14 in 30.0 mi Variable 2.3 mph - N/A   Partly Cloudy
7:00 AM 55.4 °F 51.8 °F 88% 30.15 in 30.0 mi SE 3.5 mph - N/A   Partly Cloudy
8:00 AM 62.6 °F 53.6 °F 72% 30.15 in 30.0 mi South 10.4 mph - N/A   Mostly Cloudy
9:00 AM 62.6 °F 55.4 °F 77% 30.15 in 30.0 mi SW 9.2 mph - N/A   Scattered Clouds
9:31 AM 62.6 °F 53.6 °F 72% 30.15 in 30.0 mi SSW 8.1 mph - N/A   Scattered Clouds
10:00 AM 64.4 °F 55.4 °F 73% 30.15 in 30.0 mi South 8.1 mph - N/A   Mostly Cloudy
11:00 AM 65 °F 55 °F 62% 30.14 in 28 mi SSW 6.9 mph - -   Partly Cloudy
11:00 AM 66.2 °F 55.4 °F 68% 30.14 in 30.0 mi SSW 5.8 mph - N/A   Scattered Clouds
12:00 PM 69.8 °F 55.4 °F 60% 30.12 in 30.0 mi WSW 9.2 mph - N/A   Scattered Clouds
1:00 PM 71.6 °F 57.2 °F 60% 30.11 in 30.0 mi SSW 11.5 mph - N/A   Partly Cloudy
2:00 PM 75.2 °F 55.4 °F 50% 30.09 in 30.0 mi West 12.7 mph - N/A   Partly Cloudy
3:00 PM 75.2 °F 48.2 °F 38% 30.08 in 30.0 mi West 16.1 mph 23.0 mph N/A   Partly Cloudy
4:00 PM 75.2 °F 50.0 °F 41% 30.06 in 30.0 mi SW 13.8 mph 20.7 mph N/A   Partly Cloudy
5:00 PM 75 °F 49 °F 29% 30.04 in 28 mi SSW 15.0 mph - -   Scattered Clouds
5:00 PM 75.2 °F 48.2 °F 38% 30.04 in 30.0 mi SW 15.0 mph 24.2 mph N/A   Partly Cloudy
6:00 PM 73.4 °F 50.0 °F 44% 30.03 in 30.0 mi WSW 11.5 mph - N/A   Clear
7:00 PM 71.6 °F 51.8 °F 50% 30.02 in 30.0 mi WSW 11.5 mph - N/A   Clear
8:00 PM 69.8 °F 50.0 °F 49% 30.01 in 30.0 mi West 6.9 mph - N/A   Clear
9:00 PM 68.0 °F 51.8 °F 56% 30.01 in 30.0 mi West 5.8 mph - N/A   Clear
10:00 PM 64.4 °F 50.0 °F 59% 30.01 in 30.0 mi West 3.5 mph - N/A   Clear
11:00 PM 60 °F 51 °F 63% 30.02 in 15 mi SSE 3.5 mph - -  
11:00 PM 59.0 °F 50.0 °F 72% 30.01 in 15.0 mi SSE 3.5 mph - N/A   Clear